OPS 8781

Satellite information

Favourite Embed

Satellite Type and Status

PAYLOADIN ORBIT

Key statistics

Satellite OPS 8781 at a glance.

Uptime

17441

Days in orbit

Revolutions

≈ 14.1

Per day

Orbit

LEO

Low Earth Orbit

Inclination

63.3

Latest

Satellite identification and parameters

Extended collection of information and parameters for OPS 8781.

Object identification

Identified? True

Debris? False

Object name: OPS 8781

International designator: 1977-112A

Object number (NORAD): 10502

Object ID (CCSDS): 10502

Country: UNITED STATES OF AMERICA (US)

Current information (Y/N): Y

RCS size: LARGE

Orbital parameters

Period: 102.383 minutes

Inclination: 63.3261 deg

SMA: 7249.567 km

Apoapsis: 1235.019 km

Periapsis: 507.844 km

RAAN: 193.8032 deg

Eccentricy: 0.05015299

Argument of periapsis: 157.9803 deg

Mean anomaly: 204.366 deg

Mean motion: 14.06483676 rev/day

Mean motion (dot): 0.00000926 rev/day2

B* drag term: 0.00020371352 1/REarth

Two-line elements (TLE)

Creation date: Sept. 7, 2025, 3:09 a.m.

Reference frame: TEME

Reference center: EARTH

Epoch: Sept. 6, 2025, 9:57 p.m. UTC

TLE line 0: 0 OPS 8781

TLE line 1: 1 10502U 77112A 25249.91513159 .00000926 00000-0 20371-3 0 9995

TLE line 2: 2 10502 63.3261 193.8032 0501530 157.9803 204.3660 14.06483676 68217

Live tracking on map

Real-time ground track for satellite OPS 8781.

In-orbit conjunctions

There are no conjunctions computed for OPS 8781, at the moment. Check back to stay up to date, as we update our databases every day.

Go to all conjunctions

Associated space launch

The Parcae satellites were passive ELINT satellites. MSD satellites were dispensers of triplets of ocean surveillance satellites.

OPS 8781 was lifted into orbit during the mission ‘Atlas F/MSD | Parcae 2A,B,C & MSD 2’, on board a Atlas F/MSD space rocket.

The launch took place on Dec. 8, 1977, 5:45 p.m. from Space Launch Complex 3W.

For more information about the launch, click the button.

Launch to space Atlas F/MSD | Parcae 2A,B,C & MSD 2
Atlas F/MSD | Parcae 2A,B,C & MSD 2

Agency: N/A

Status: Launch Successful

Launch date: Dec. 8, 1977, 5:45 p.m. UTC

Rocket: Atlas F/MSD

Launch pad: Space Launch Complex 3W

Location: Vandenberg SFB, CA, USA

...

Latest news about this satellite

There are no fresh news available about this satellite. Check back as we update our databases every day.


Newsletter sign-up

Weekly statistics, charts and insights to help you stay on top of the space industry.